Regional Weather Roundup
Issued by NWS

Home | Current Version | Previous Version | Text Only | Print | Product List | Glossary On
Versions: 1 2 3 4 5 6 7 8 9 10 11 12 13 14 15 16 17 18 19 20 21 22 23 24 25 26 27 28 29 30 31 32 33 34 35 36 37 38 39 40 41 42 43 44 45 46 47 48 49 50
000
ASUS43 KMKX 212021
RWRWI

WISCONSIN REGIONAL WEATHER ROUNDUP
NATIONAL WEATHER SERVICE MILWAUKEE/SULLIVAN WI
300 PM CDT THU SEP 21 2017

NOTE: "FAIR" INDICATES FEW OR NO CLOUDS BELOW 12,000 FEET WITH NO
SIGNIFICANT WEATHER AND/OR OBSTRUCTIONS TO VISIBILITY.

WIZ001-002-006>008-014>016-023>028-212100-
NORTHWEST WISCONSIN

CITY           SKY/WX    TMP DP  RH WIND       PRES   REMARKS
SUPERIOR ARPT  MOSUNNY   65  59  82 NE14G21   29.94S
ASHLAND        SUNNY     72  59  63 NE13      29.96F
HAYWARD        SUNNY     78  59  51 S13       29.93F
SIREN          SUNNY     80  58  47 SE12G17   29.89F HX  80
CUMBERLAND     SUNNY     77  63  61 SE14      29.91F
RICE LAKE      PTSUNNY   80  66  62 SE13G20   29.93F HX  82
CHETEK         MOSUNNY   78  69  75 SE12G17   29.92F HX  80
LADYSMITH      CLOUDY    80  67  65 SE10G16   29.96F HX  82
EAU CLAIRE     PTSUNNY   76  67  73 SE13      29.91F
MENOMONIE      MOSUNNY   80  69  67 E10       29.91S HX  83
NEW RICHMOND   SUNNY     79  64  58 SE14      29.88F HX  81
OSCEOLA        SUNNY     80  63  56 SE12      29.90F HX  81
$$

WIZ003>005-009-010-017-018-212100-
NORTH CENTRAL WISCONSIN

CITY           SKY/WX    TMP DP  RH WIND       PRES   REMARKS
MANITOWISH WTR SUNNY     77  66  68 S6        29.98F
ARBOR VITAE    SUNNY     79  66  64 SE10      29.99F HX  81
WOODRUFF       SUNNY     79  66  64 SE10      29.99F HX  81
RHINELANDER    PTSUNNY   79  66  64 S5        30.00F HX  81
EAGLE RIVER    SUNNY     78  61  54 S8        30.00S HX  80
LAND O LAKES   MOSUNNY   78  62  57 SE8       30.02S HX  80
PHILLIPS       MOSUNNY   78  66  66 SE10      29.96F HX  80
TOMAHAWK       MOSUNNY   76  65  69 CALM      29.99F
MEDFORD        CLOUDY    72  67  84 SE6       29.98F
MERRILL        CLOUDY    76  69  78 S10       30.00S
$$

WIZ029-030-035-036-043>047-212100-
CENTRAL WISCONSIN

CITY           SKY/WX    TMP DP  RH WIND       PRES   REMARKS
WAUSAU         CLOUDY    73  67  81 SE13      29.98F
MOSINEE        CLOUDY    72  68  88 SE9       30.01F
MARSHFIELD     PTSUNNY   74  66  76 SE9       29.98F
STEVENS POINT  PTSUNNY   74  69  85 SE7       30.00F
WAUPACA        CLOUDY    83  71  66 SE5       29.99F HX  88
WAUTOMA        MOSUNNY   82  68  62 S9        29.99F HX  85
WISC RAPIDS    MOSUNNY   81  69  67 S8        29.99S HX  84
CAMP DOUGLAS   MOSUNNY   82  68  61 SE12      29.96F HX  85
$$

WIZ011>013-019>022-031-037>040-048>050-212100-
NORTHEAST WISCONSIN

CITY           SKY/WX    TMP DP  RH WIND       PRES   REMARKS
ANTIGO         CLOUDY    73  68  83 SE10      30.02F
SHAWANO        CLOUDY    77  69  77 SE6       30.00F
OCONTO         CLOUDY    75  68  79 S3        30.00F
STURGEON BAY   CLOUDY    79  70  73 VRB5      30.01F HX  81
GREEN BAY      CLOUDY    81  72  74 CALM      29.99F HX  85
MANITOWOC      MOSUNNY   73  67  81 SE8       30.02F
APPLETON       PTSUNNY   81  64  57 S9        29.99F HX  82
CLINTONVILLE   CLOUDY    77  66  69 SE7       30.00
OSHKOSH        MOSUNNY   83  66  56 S13       29.99F HX  85
$$

WIZ032>034-041-042-053>061-212100-
SOUTHWEST WISCONSIN

CITY           SKY/WX    TMP DP  RH WIND       PRES   REMARKS
LA CROSSE      NOT AVBL
SPARTA         SUNNY     82  64  54 S9G20     29.95S HX  83
VIROQUA        SUNNY     83  64  51 S8G18     29.96F HX  85
BOSCOBEL       SUNNY     88  62  41 VRB6      29.93F HX  88
PRAIRIE DU CHI CLOUDY    86  60  40 E8        29.91F HX  86
PLATTEVILLE    MOSUNNY   86  62  43 SE14      29.97F HX  86
$$

WIZ056-057-062-063-064-067-068-212100-
SOUTH CENTRAL WISCONSIN

CITY           SKY/WX    TMP DP  RH WIND       PRES   REMARKS
REEDSBURG      CLOUDY    83  66  56 S9        29.97F HX  85
BARABOO/DELLS  CLOUDY    82  62  51 S9        29.98F HX  83
LONE ROCK      SUNNY     86  65  49 SE13      29.95F HX  88
MINERAL POINT  MOSUNNY   86  64  48 SE8       29.98F HX  87
MADISON        CLOUDY    83  64  52 SE9       29.97F HX  84
MIDDLETON      CLOUDY    82  66  58 SE7       29.99F HX  84
WATERTOWN      CLOUDY    83  67  59 E7        29.99F HX  85
MONROE         CLOUDY    82  61  47 SE13      29.99R HX  83
JANESVILLE     MOSUNNY   91  57  31 SE7       29.97F HX  90
$$

WIZ051-052-058>065-066-070>072-212100-
SOUTHEAST WISCONSIN

CITY           SKY/WX    TMP DP  RH WIND       PRES   REMARKS
MILWAUKEE      CLOUDY    84  68  58 SE9       30.01S HX  87
WAUKESHA       SUNNY     82  64  54 E7        30.02F HX  84
MILWAUKEE/TIMM SUNNY     84  63  48 SE5       30.02S HX  85
RACINE         CLOUDY    82  69  64 E7        30.03S HX  85
BURLINGTON     MOSUNNY   91  65  42 SE9       29.99F HX  93
KENOSHA        PTSUNNY   89  67  47 SE10      30.01F HX  92
FOND DU LAC    CLOUDY    84  63  49 S7        30.00F HX  85
SHEBOYGAN      CLOUDY    83  71  67 S6        30.01F HX  87
WEST BEND        N/A     81  70  69 CALM      30.01F HX  84
JUNEAU         MOSUNNY   82  64  55 SE7       30.01F HX  83
$$

LSZ147-162-212100-
LAKE SUPERIOR

STATION/POSITION TIME  TEMP    WIND        PRES    WAVE
                       AIR SEA DIR/SP/G            HT/PER
                 (UTC) (F)     (DEG/KT/KT) (MB)    (FT/S)
W MID LAKE BUOY  1950   54 55   40/ 12/ 16 1015.7F   1/ 2
DEVILS ISLAND    2000   59      60/ 14/ 17 1015.1F
PORT WING        1840   74      30/ 18/ 20 1014.6F
SAXON HARBOR     1940   63      40/ 10/ 12 1014.2F
$$

LMZ867-665-643>646-212100-
LAKE MICHIGAN

STATION/POSITION TIME  TEMP    WIND        PRES    WAVE
                       AIR SEA DIR/SP/G            HT/PER
                 (UTC) (F)     (DEG/KT/KT) (MB)    (FT/S)
S GREEN BAY BUOY 1930   68 68   40/  4/  6 1016.2F
N MID LAKE BUOY  1950   66 67  130/  6/  8 1017.1R   1/ 5
NORTHPORT PIER   1940   70     140/  6/  7 1016.3S
KEWAUNEE LAKESHO 1954   68      80/  3/  4 1015.8F
SHEBOYGAN LAKESH 2000   68     100/  5/  5 1015.8F
PORT WASHINGTON  1940   72     150/  4/  6 1017.3S
ATWATER BUOY     1909   71 67  180/  2/  4 1016.8F
MILWAUKEE LAKESH 2000   72      50/  2/  3   N/A
S MID LAKE BUOY  1950   72 71  120/  6/  6 1016.4F   1
KENOSHA   LAKESH 2000   79     120/  4/  6 1015.6
$$

TC  - TEMPERATURE IN CELSIUS
VSB - VISIBILITY IN STATUTE MILES
WCI - WIND CHILL INDEX
HX  - HEAT INDEX




USA.gov is the U.S. government's official web portal to all federal, state and local government web resources and services.